UAE770 OMDB-FACT

Flight info

Callsign UAE770
Flight time 3h 14m
Altitude 32000
Route ANVIX R401 GIDIS G783 UKRAG/N0505F330 L710 KUKDI/N0509F320 B400 MUTVA/N0502F340 B400 VEDET UL437 KASIM/N0496F360 UL437 DVL UM315 USUBI UR409 VMV UP312 GWV/N0507F280 UA405 UTRUK/N0494F360 DCT RAGUL DCT CSV UZ26 ERDAS ERDAS1B
Aircraft B77W/H-SDE1E2E3FGHIJ2J3J4J5M1RWXY/LB1D1

Departure

Time 2026-05-07 05:39
Airport Dubai International Airport (OMDB)

Arrival

Time 2026-05-07 08:53
Airport Cape Town International Airport (FACT)
Time Latitude Longitude Altitude Speed Heading
2026-05-07 05:14 25.25505 55.35204 26 ft 0 kts 211°
2026-05-07 05:26 25.25509 55.35206 26 ft 2 kts 209°
2026-05-07 05:26 25.25523 55.35216 31 ft 2 kts 211°
2026-05-07 05:26 25.25537 55.35225 31 ft 2 kts 211°
2026-05-07 05:26 25.25552 55.35235 32 ft 2 kts 211°
2026-05-07 05:27 25.25566 55.35244 32 ft 2 kts 227°
2026-05-07 05:27 25.25573 55.35260 32 ft 2 kts 272°
2026-05-07 05:27 25.25571 55.35275 31 ft 1 kts 297°
2026-05-07 05:27 25.25570 55.35277 31 ft 0 kts 299°
2026-05-07 05:29 25.25574 55.35269 31 ft 4 kts 300°
2026-05-07 05:29 25.25599 55.35224 27 ft 10 kts 301°
2026-05-07 05:30 25.25639 55.35161 30 ft 10 kts 319°
2026-05-07 05:30 25.25705 55.35165 29 ft 10 kts 30°
2026-05-07 05:30 25.25765 55.35206 30 ft 10 kts 31°
2026-05-07 05:30 25.25826 55.35247 29 ft 10 kts 31°
2026-05-07 05:31 25.25887 55.35287 30 ft 10 kts 31°
2026-05-07 05:31 25.25948 55.35328 26 ft 10 kts 33°
2026-05-07 05:31 25.25995 55.35393 27 ft 14 kts 65°
2026-05-07 05:31 25.25996 55.35538 28 ft 24 kts 112°
2026-05-07 05:32 25.25909 55.35698 28 ft 24 kts 122°
2026-05-07 05:32 25.25821 55.35855 28 ft 24 kts 122°
2026-05-07 05:32 25.25734 55.36010 28 ft 24 kts 122°
2026-05-07 05:32 25.25645 55.36168 28 ft 24 kts 122°
2026-05-07 05:33 25.25557 55.36325 28 ft 24 kts 122°
2026-05-07 05:33 25.25469 55.36483 29 ft 24 kts 122°
2026-05-07 05:33 25.25380 55.36640 28 ft 24 kts 122°
2026-05-07 05:33 25.25292 55.36797 29 ft 24 kts 122°
2026-05-07 05:34 25.25203 55.36954 29 ft 24 kts 122°
2026-05-07 05:34 25.25115 55.37112 30 ft 24 kts 121°
2026-05-07 05:34 25.25027 55.37269 30 ft 24 kts 122°
2026-05-07 05:34 25.24939 55.37427 30 ft 24 kts 122°
2026-05-07 05:35 25.24849 55.37584 29 ft 24 kts 122°
2026-05-07 05:35 25.24761 55.37741 29 ft 24 kts 122°
2026-05-07 05:35 25.24673 55.37898 29 ft 24 kts 122°
2026-05-07 05:35 25.24584 55.38055 29 ft 24 kts 121°
2026-05-07 05:36 25.24523 55.38164 29 ft 12 kts 122°
2026-05-07 05:36 25.24503 55.38227 28 ft 9 kts 80°
2026-05-07 05:36 25.24544 55.38275 28 ft 9 kts 33°
2026-05-07 05:36 25.24596 55.38312 27 ft 9 kts 31°
2026-05-07 05:37 25.24642 55.38320 27 ft 6 kts 318°
2026-05-07 05:37 25.24666 55.38281 27 ft 8 kts 302°
2026-05-07 05:37 25.24744 55.38139 33 ft 39 kts 301°
2026-05-07 05:37 25.25000 55.37677 35 ft 101 kts 301°
2026-05-07 05:38 25.25465 55.36838 34 ft 153 kts 301°
2026-05-07 05:38 25.26097 55.35695 33 ft 193 kts 301°
2026-05-07 05:38 25.26855 55.34363 199 ft 208 kts 298°
2026-05-07 05:38 25.27627 55.32955 461 ft 219 kts 295°
2026-05-07 05:39 25.28402 55.31478 905 ft 222 kts 296°
2026-05-07 05:39 25.29136 55.30001 1437 ft 218 kts 280°
2026-05-07 05:39 25.29062 55.28423 1990 ft 194 kts 244°
2026-05-07 05:39 25.28500 55.27039 2319 ft 206 kts 243°
2026-05-07 05:40 25.27873 55.25530 2542 ft 222 kts 244°
2026-05-07 05:40 25.27206 55.23946 2873 ft 233 kts 244°
2026-05-07 05:40 25.26499 55.22279 3147 ft 248 kts 244°
2026-05-07 05:40 25.25753 55.20521 3537 ft 257 kts 244°
2026-05-07 05:41 25.24971 55.18746 3987 ft 262 kts 238°
2026-05-07 05:41 25.23672 55.17322 4412 ft 270 kts 209°
2026-05-07 05:41 25.21850 55.16740 4927 ft 278 kts 184°
2026-05-07 05:41 25.19910 55.16925 5318 ft 285 kts 163°
2026-05-07 05:42 25.18202 55.18051 5769 ft 292 kts 132°
2026-05-07 05:42 25.17096 55.19914 6284 ft 291 kts 117°
2026-05-07 05:42 25.16150 55.21921 6749 ft 295 kts 116°
2026-05-07 05:42 25.15200 55.23932 7380 ft 295 kts 116°
2026-05-07 05:43 25.14244 55.25937 7950 ft 296 kts 116°
2026-05-07 05:43 25.13292 55.27931 8675 ft 291 kts 116°
2026-05-07 05:43 25.12358 55.29881 9301 ft 291 kts 116°
2026-05-07 05:43 25.11396 55.31882 9898 ft 292 kts 116°
2026-05-07 05:44 25.10472 55.33840 10438 ft 292 kts 114°
2026-05-07 05:44 25.09625 55.35878 11043 ft 291 kts 112°
2026-05-07 05:44 25.08800 55.37919 11708 ft 291 kts 112°
2026-05-07 05:44 25.08329 55.39079 12083 ft 291 kts 112°
2026-05-07 05:45 25.07531 55.41030 12709 ft 294 kts 112°
2026-05-07 05:45 25.06693 55.43133 13221 ft 304 kts 111°
2026-05-07 05:45 25.05841 55.45361 13362 ft 325 kts 111°
2026-05-07 05:45 25.04938 55.47732 13532 ft 345 kts 111°
2026-05-07 05:46 25.03980 55.50232 13692 ft 365 kts 112°
2026-05-07 05:46 25.02965 55.52867 13996 ft 378 kts 112°
2026-05-07 05:46 25.01918 55.55557 14483 ft 385 kts 114°
2026-05-07 05:46 25.00670 55.58172 14918 ft 394 kts 120°
2026-05-07 05:47 24.99220 55.60746 15564 ft 396 kts 121°
2026-05-07 05:47 24.98439 55.62100 15932 ft 396 kts 121°
2026-05-07 05:47 24.97602 55.63569 16260 ft 400 kts 121°
2026-05-07 05:47 24.96134 55.66218 16690 ft 408 kts 121°
2026-05-07 05:48 24.94670 55.68917 17233 ft 413 kts 121°
2026-05-07 05:48 24.93132 55.71614 17742 ft 419 kts 124°
2026-05-07 05:48 24.91415 55.74227 18240 ft 424 kts 127°
2026-05-07 05:48 24.89619 55.76836 18689 ft 429 kts 127°
2026-05-07 05:49 24.87811 55.79477 19167 ft 433 kts 127°
2026-05-07 05:49 24.86012 55.82161 19654 ft 437 kts 127°
2026-05-07 05:49 24.84234 55.84839 20123 ft 441 kts 127°
2026-05-07 05:49 24.82411 55.87570 20602 ft 445 kts 127°
2026-05-07 05:50 24.80512 55.90269 20979 ft 446 kts 134°
2026-05-07 05:50 24.78050 55.92358 21234 ft 449 kts 155°
2026-05-07 05:50 24.75122 55.93519 21791 ft 446 kts 169°
2026-05-07 05:50 24.72041 55.93818 22341 ft 444 kts 184°
2026-05-07 05:51 24.68936 55.93640 22694 ft 449 kts 185°
2026-05-07 05:51 24.65804 55.93475 23217 ft 451 kts 184°
2026-05-07 05:51 24.63737 55.93342 23469 ft 450 kts 188°
2026-05-07 05:51 24.59703 55.92120 23888 ft 451 kts 205°
2026-05-07 05:52 24.56952 55.90471 24226 ft 452 kts 216°
2026-05-07 05:52 24.54537 55.88270 24520 ft 452 kts 223°
2026-05-07 05:52 24.52984 55.86726 24694 ft 456 kts 223°
2026-05-07 05:52 24.50636 55.84385 25103 ft 456 kts 223°
2026-05-07 05:53 24.47501 55.81303 25629 ft 459 kts 223°
2026-05-07 05:53 24.45100 55.78978 25920 ft 462 kts 222°
2026-05-07 05:53 24.43458 55.77400 26146 ft 464 kts 222°
2026-05-07 05:53 24.40233 55.74310 26642 ft 466 kts 222°
2026-05-07 05:54 24.37788 55.71970 27017 ft 467 kts 222°
2026-05-07 05:54 24.36168 55.70415 27261 ft 468 kts 223°
2026-05-07 05:54 24.33724 55.68056 27595 ft 470 kts 223°
2026-05-07 05:54 24.31254 55.65669 27911 ft 472 kts 223°
2026-05-07 05:55 24.28725 55.63350 28204 ft 475 kts 218°
2026-05-07 05:55 24.24965 55.60860 28596 ft 481 kts 208°
2026-05-07 05:55 24.22907 55.59816 28797 ft 483 kts 205°
2026-05-07 05:55 24.19716 55.58597 29051 ft 487 kts 198°
2026-05-07 05:56 24.16434 55.57653 29298 ft 490 kts 197°
2026-05-07 05:56 24.13122 55.56732 29547 ft 492 kts 197°
2026-05-07 05:56 24.09801 55.55794 29770 ft 494 kts 197°
2026-05-07 05:56 24.06476 55.54827 30019 ft 494 kts 198°
2026-05-07 05:57 24.03205 55.53859 30320 ft 493 kts 198°
2026-05-07 05:57 23.99906 55.52879 30660 ft 491 kts 198°
2026-05-07 05:57 23.96612 55.51899 30991 ft 489 kts 198°
2026-05-07 05:57 23.93326 55.50919 31303 ft 488 kts 198°
2026-05-07 05:58 23.90056 55.49945 31607 ft 487 kts 198°
2026-05-07 05:58 23.86774 55.48969 31853 ft 487 kts 198°
2026-05-07 05:58 23.83488 55.47991 31878 ft 490 kts 198°
2026-05-07 05:59 23.76977 55.46052 31916 ft 486 kts 198°
2026-05-07 05:59 23.70466 55.44111 31924 ft 484 kts 198°
2026-05-07 06:00 23.63974 55.42178 31923 ft 483 kts 198°
2026-05-07 06:00 23.57479 55.40247 31923 ft 483 kts 197°
2026-05-07 06:01 23.50775 55.39370 31925 ft 491 kts 181°
2026-05-07 06:01 23.44013 55.40497 31924 ft 499 kts 167°
2026-05-07 06:02 23.37336 55.42627 31924 ft 501 kts 166°
2026-05-07 06:02 23.30633 55.44812 31919 ft 503 kts 166°
2026-05-07 06:03 23.23911 55.46958 31918 ft 503 kts 166°
2026-05-07 06:03 23.17232 55.49065 31914 ft 502 kts 166°
2026-05-07 06:04 23.10520 55.51181 31919 ft 502 kts 166°
2026-05-07 06:04 23.03820 55.53293 31919 ft 501 kts 166°
2026-05-07 06:05 22.97110 55.55362 31917 ft 500 kts 167°
2026-05-07 06:05 22.90412 55.57396 31922 ft 499 kts 167°
2026-05-07 06:06 22.83765 55.59419 31917 ft 499 kts 167°
2026-05-07 06:06 22.77065 55.61463 31914 ft 500 kts 167°
2026-05-07 06:07 22.70367 55.63505 31915 ft 500 kts 167°
2026-05-07 06:07 22.63662 55.65546 31910 ft 500 kts 167°
2026-05-07 06:08 22.56956 55.67593 31914 ft 500 kts 167°
2026-05-07 06:08 22.50254 55.69650 31909 ft 501 kts 167°
2026-05-07 06:09 22.43550 55.71704 31913 ft 501 kts 166°
2026-05-07 06:09 22.36846 55.73755 31915 ft 501 kts 166°
2026-05-07 06:10 22.30166 55.75797 31913 ft 501 kts 166°
2026-05-07 06:10 22.23376 55.77455 31905 ft 498 kts 175°
2026-05-07 06:11 22.16494 55.78121 31910 ft 497 kts 177°
2026-05-07 06:11 22.09600 55.78753 31910 ft 497 kts 177°
2026-05-07 06:12 22.02739 55.79426 31912 ft 498 kts 177°
2026-05-07 06:12 21.95834 55.80124 31909 ft 498 kts 176°
2026-05-07 06:13 21.88919 55.80822 31911 ft 498 kts 176°
2026-05-07 06:13 21.82013 55.81516 31913 ft 498 kts 176°
2026-05-07 06:14 21.75098 55.82209 31910 ft 498 kts 176°
2026-05-07 06:14 21.68234 55.82895 31914 ft 498 kts 176°
2026-05-07 06:15 21.61331 55.83571 31908 ft 498 kts 176°
2026-05-07 06:15 21.54411 55.84245 31912 ft 498 kts 176°
2026-05-07 06:16 21.47500 55.84919 31915 ft 498 kts 176°
2026-05-07 06:16 21.40593 55.85594 31917 ft 498 kts 176°
2026-05-07 06:17 21.33660 55.86270 31905 ft 498 kts 176°
2026-05-07 06:17 21.26797 55.86939 31906 ft 498 kts 176°
2026-05-07 06:18 21.19890 55.87605 31902 ft 498 kts 176°
2026-05-07 06:18 21.12975 55.88269 31905 ft 498 kts 176°
2026-05-07 06:19 21.06062 55.88932 31905 ft 498 kts 176°
2026-05-07 06:19 20.99134 55.89598 31902 ft 498 kts 176°
2026-05-07 06:20 20.92266 55.90257 31899 ft 499 kts 176°
2026-05-07 06:20 20.85359 55.90919 31913 ft 498 kts 176°
2026-05-07 06:21 20.78440 55.91597 31902 ft 498 kts 176°
2026-05-07 06:21 20.71532 55.92278 31913 ft 498 kts 176°
2026-05-07 06:22 20.64619 55.92958 32064 ft 499 kts 176°
2026-05-07 06:22 20.57741 55.93633 32825 ft 493 kts 176°
2026-05-07 06:22 20.54326 55.93968 33149 ft 492 kts 176°
2026-05-07 06:23 20.50916 55.94302 33439 ft 491 kts 176°
2026-05-07 06:23 20.47523 55.94634 33732 ft 490 kts 176°
2026-05-07 06:23 20.40768 55.95294 33878 ft 492 kts 176°
2026-05-07 06:24 20.33952 55.95960 33892 ft 491 kts 176°
2026-05-07 06:24 20.27152 55.96619 33901 ft 488 kts 176°
2026-05-07 06:25 20.20401 55.97259 33906 ft 487 kts 176°
2026-05-07 06:25 20.13639 55.97901 33902 ft 487 kts 176°
2026-05-07 06:26 20.06879 55.98479 33903 ft 488 kts 179°
2026-05-07 06:26 20.00084 55.98654 33908 ft 489 kts 180°
2026-05-07 06:27 19.93316 55.98779 33903 ft 490 kts 180°
2026-05-07 06:27 19.86479 55.98928 33903 ft 491 kts 180°
2026-05-07 06:28 19.79622 55.99096 33901 ft 492 kts 180°
2026-05-07 06:28 19.72808 55.99263 33899 ft 492 kts 180°
2026-05-07 06:29 19.65951 55.99430 33901 ft 493 kts 180°
2026-05-07 06:29 19.59085 55.99595 33905 ft 493 kts 180°
2026-05-07 06:30 19.52265 55.99316 33892 ft 490 kts 192°
2026-05-07 06:30 19.45818 55.97048 33895 ft 488 kts 208°
2026-05-07 06:31 19.39989 55.93477 33905 ft 487 kts 211°
2026-05-07 06:31 19.34142 55.89828 33905 ft 488 kts 211°
2026-05-07 06:32 19.28250 55.86226 33904 ft 489 kts 210°
2026-05-07 06:32 19.22344 55.82651 33905 ft 489 kts 210°
2026-05-07 06:33 19.13220 55.77131 33913 ft 490 kts 210°
2026-05-07 06:33 18.89524 55.62854 33907 ft 492 kts 210°
2026-05-07 06:34 18.65815 55.48628 33901 ft 493 kts 210°
2026-05-07 06:34 18.41929 55.34341 33896 ft 493 kts 210°
2026-05-07 06:35 18.18116 55.20134 33899 ft 491 kts 210°
2026-05-07 06:35 17.93159 55.08360 33901 ft 491 kts 204°
2026-05-07 06:36 17.68031 54.97105 33900 ft 491 kts 204°
2026-05-07 06:36 17.42905 54.85886 33919 ft 491 kts 204°
2026-05-07 06:37 17.18508 54.73195 33925 ft 490 kts 214°
2026-05-07 06:37 16.95684 54.57862 33912 ft 490 kts 213°
2026-05-07 06:38 16.72657 54.42503 33898 ft 491 kts 213°
2026-05-07 06:38 16.49641 54.27184 33902 ft 491 kts 213°
2026-05-07 06:39 16.26595 54.11889 33900 ft 491 kts 213°
2026-05-07 06:39 16.03554 53.96640 33910 ft 490 kts 213°
2026-05-07 06:40 15.84395 53.83975 33908 ft 490 kts 213°
2026-05-07 06:40 15.61423 53.68614 33912 ft 491 kts 213°
2026-05-07 06:41 15.34564 53.50906 33916 ft 491 kts 212°
2026-05-07 06:41 15.15051 53.38451 33911 ft 492 kts 212°
2026-05-07 06:42 14.91909 53.23670 33916 ft 491 kts 212°
2026-05-07 06:42 14.68601 53.08820 33904 ft 492 kts 212°
2026-05-07 06:43 14.45290 52.93865 33914 ft 492 kts 212°
2026-05-07 06:43 14.22166 52.79044 33914 ft 492 kts 212°
2026-05-07 06:44 13.98911 52.64175 33912 ft 491 kts 212°
2026-05-07 06:44 13.75674 52.49353 33906 ft 490 kts 211°
2026-05-07 06:45 13.52513 52.34614 33909 ft 489 kts 211°
2026-05-07 06:45 13.29387 52.19951 33900 ft 487 kts 211°
2026-05-07 06:46 13.06330 52.05399 33900 ft 486 kts 211°
2026-05-07 06:46 12.83305 51.90896 33900 ft 485 kts 210°
2026-05-07 06:47 12.60284 51.76426 33894 ft 484 kts 210°
2026-05-07 06:47 12.37284 51.62000 33892 ft 484 kts 210°
2026-05-07 06:48 12.14442 51.47704 33886 ft 485 kts 210°
2026-05-07 06:48 11.91342 51.33270 33893 ft 486 kts 210°
2026-05-07 06:49 11.68210 51.18833 33897 ft 488 kts 210°
2026-05-07 06:49 11.44980 51.04362 33915 ft 490 kts 210°
2026-05-07 06:50 11.21775 50.89915 33930 ft 492 kts 210°
2026-05-07 06:50 10.98402 50.75378 33924 ft 492 kts 210°
2026-05-07 06:51 10.75023 50.60865 33922 ft 492 kts 210°
2026-05-07 06:51 10.51672 50.46396 33922 ft 491 kts 210°
2026-05-07 06:52 10.28236 50.31900 33928 ft 492 kts 210°
2026-05-07 06:52 10.04974 50.17536 33940 ft 491 kts 210°
2026-05-07 06:53 9.81542 50.03093 33949 ft 492 kts 211°
2026-05-07 06:53 9.58119 49.88679 33948 ft 492 kts 211°
2026-05-07 06:54 9.34680 49.74277 33956 ft 493 kts 211°
2026-05-07 06:54 9.11230 49.59907 33950 ft 493 kts 211°
2026-05-07 06:55 8.87736 49.45546 33957 ft 493 kts 211°
2026-05-07 06:55 8.64222 49.31191 33951 ft 494 kts 211°
2026-05-07 06:56 8.40814 49.16927 33933 ft 494 kts 211°
2026-05-07 06:56 8.17226 49.02568 33941 ft 495 kts 211°
2026-05-07 06:57 7.93589 48.88200 33958 ft 496 kts 211°
2026-05-07 06:57 7.69908 48.73824 33944 ft 496 kts 211°
2026-05-07 06:58 7.46365 48.59550 33943 ft 496 kts 211°
2026-05-07 06:58 7.22785 48.45151 33936 ft 495 kts 211°
2026-05-07 06:59 6.99285 48.30651 33925 ft 494 kts 211°
2026-05-07 06:59 6.75848 48.16219 33922 ft 492 kts 211°
2026-05-07 07:00 6.52633 48.01940 33921 ft 491 kts 211°
2026-05-07 07:00 6.29349 47.87635 33925 ft 489 kts 211°
2026-05-07 07:01 6.06129 47.73384 33918 ft 489 kts 211°
2026-05-07 07:01 5.82891 47.59135 33915 ft 489 kts 211°
2026-05-07 07:02 5.59644 47.44928 33924 ft 489 kts 210°
2026-05-07 07:02 5.36243 47.30816 33918 ft 490 kts 210°
2026-05-07 07:03 5.13014 47.16799 33921 ft 490 kts 210°
2026-05-07 07:03 4.89619 47.02696 33923 ft 490 kts 210°
2026-05-07 07:04 4.66202 46.88591 33921 ft 490 kts 210°
2026-05-07 07:04 4.42830 46.74524 33921 ft 489 kts 210°
2026-05-07 07:05 4.19468 46.60474 33925 ft 489 kts 210°
2026-05-07 07:05 3.96124 46.46444 33923 ft 489 kts 210°
2026-05-07 07:06 3.72756 46.32408 33922 ft 489 kts 210°
2026-05-07 07:06 3.49530 46.18467 33927 ft 489 kts 210°
2026-05-07 07:07 3.26166 46.04452 33937 ft 489 kts 210°
2026-05-07 07:07 3.02803 45.90445 33935 ft 489 kts 210°
2026-05-07 07:08 2.79430 45.76439 33935 ft 490 kts 210°
2026-05-07 07:08 2.55978 45.62391 33936 ft 491 kts 210°
2026-05-07 07:09 2.14678 45.37665 33945 ft 492 kts 210°
2026-05-07 07:09 1.68676 45.07682 33939 ft 494 kts 213°
2026-05-07 07:10 1.23294 44.77137 33933 ft 496 kts 213°
2026-05-07 07:10 0.77325 44.46186 33926 ft 498 kts 213°
2026-05-07 07:11 0.31211 44.15132 33948 ft 501 kts 213°
2026-05-07 07:11 -0.15123 43.83787 33947 ft 504 kts 213°
2026-05-07 07:12 -0.61728 43.52245 33942 ft 506 kts 214°
2026-05-07 07:12 -1.08346 43.20688 33944 ft 505 kts 214°
2026-05-07 07:13 -1.54521 42.89423 33937 ft 504 kts 214°
2026-05-07 07:13 -2.00932 42.57971 33941 ft 504 kts 214°
2026-05-07 07:14 -2.24217 42.41806 34843 ft 509 kts 216°
2026-05-07 07:14 -2.46990 42.24915 35985 ft 515 kts 217°
2026-05-07 07:14 -2.93410 41.90679 35902 ft 512 kts 216°
2026-05-07 07:15 -3.16036 41.73971 35858 ft 499 kts 216°
2026-05-07 07:15 -3.38276 41.57544 35936 ft 496 kts 216°
2026-05-07 07:15 -3.83284 41.24258 36042 ft 512 kts 216°
2026-05-07 07:16 -4.06428 41.07636 35937 ft 510 kts 211°
2026-05-07 07:16 -4.30796 40.93292 35904 ft 503 kts 211°
2026-05-07 07:16 -4.78125 40.64330 35957 ft 496 kts 211°
2026-05-07 07:17 -5.22694 40.30878 36017 ft 506 kts 212°
2026-05-07 07:17 -5.69607 39.99839 35956 ft 506 kts 213°
2026-05-07 07:18 -6.16025 39.68758 35932 ft 496 kts 213°
2026-05-07 07:18 -6.61602 39.37841 35999 ft 493 kts 214°
2026-05-07 07:19 -7.07009 39.05577 36061 ft 505 kts 218°
2026-05-07 07:19 -7.51663 38.71557 35943 ft 496 kts 217°
2026-05-07 07:20 -7.95166 38.38403 36016 ft 488 kts 218°
2026-05-07 07:20 -8.38891 38.04997 36092 ft 504 kts 218°
2026-05-07 07:21 -8.61243 37.87885 35987 ft 500 kts 218°
2026-05-07 07:21 -8.83220 37.71029 35945 ft 491 kts 218°
2026-05-07 07:21 -9.26525 37.37761 36096 ft 491 kts 218°
2026-05-07 07:22 -9.70709 37.03699 36053 ft 501 kts 218°
2026-05-07 07:22 -10.14396 36.69901 35955 ft 484 kts 218°
2026-05-07 07:23 -10.57079 36.36771 36126 ft 492 kts 218°
2026-05-07 07:23 -11.01262 36.02347 35997 ft 498 kts 218°
2026-05-07 07:24 -11.44530 35.68511 35956 ft 483 kts 218°
2026-05-07 07:24 -11.65877 35.51732 36073 ft 487 kts 219°
2026-05-07 07:24 -11.87402 35.34465 36156 ft 497 kts 219°
2026-05-07 07:25 -12.30977 34.99493 35985 ft 493 kts 220°
2026-05-07 07:25 -12.52367 34.82259 35966 ft 484 kts 220°
2026-05-07 07:26 -12.95098 34.49037 36091 ft 485 kts 219°
2026-05-07 07:26 -13.38447 34.14941 36113 ft 497 kts 220°
2026-05-07 07:27 -13.81471 33.80685 36059 ft 482 kts 216°
2026-05-07 07:27 -14.30675 33.58257 36169 ft 485 kts 207°
2026-05-07 07:28 -14.72396 33.39270 36122 ft 497 kts 207°
2026-05-07 07:28 -14.97573 33.27809 35991 ft 492 kts 207°
2026-05-07 07:28 -15.22205 33.16102 35901 ft 481 kts 208°
2026-05-07 07:29 -15.70590 32.92798 36039 ft 483 kts 209°
2026-05-07 07:29 -15.95222 32.80633 36076 ft 494 kts 209°
2026-05-07 07:29 -16.20125 32.68350 35981 ft 492 kts 210°
2026-05-07 07:30 -16.68646 32.44719 35977 ft 475 kts 208°
2026-05-07 07:30 -16.92739 32.33325 36093 ft 476 kts 209°
2026-05-07 07:30 -17.17046 32.21798 36176 ft 486 kts 209°
2026-05-07 07:31 -17.66781 31.98401 36096 ft 487 kts 210°
2026-05-07 07:31 -18.15364 31.75374 36153 ft 475 kts 211°
2026-05-07 07:31 -18.39669 31.63904 36265 ft 483 kts 210°
2026-05-07 07:32 -18.64479 31.52198 36265 ft 492 kts 211°
2026-05-07 07:32 -19.14025 31.28716 36082 ft 480 kts 211°
2026-05-07 07:33 -19.62443 31.05913 36239 ft 479 kts 211°
2026-05-07 07:33 -19.87092 30.94237 36294 ft 490 kts 211°
2026-05-07 07:33 -20.11589 30.82069 36208 ft 481 kts 217°
2026-05-07 07:34 -20.57195 30.51784 36168 ft 482 kts 218°
2026-05-07 07:34 -21.02517 30.21939 36149 ft 480 kts 218°
2026-05-07 07:35 -21.47954 29.91814 36150 ft 477 kts 219°
2026-05-07 07:35 -21.92946 29.61762 36174 ft 474 kts 219°
2026-05-07 07:36 -22.39643 29.34242 36244 ft 492 kts 207°
2026-05-07 07:36 -22.64484 29.23767 36144 ft 479 kts 209°
2026-05-07 07:36 -22.89070 29.12996 36161 ft 475 kts 209°
2026-05-07 07:37 -23.38583 28.91303 36254 ft 483 kts 209°
2026-05-07 07:37 -23.88578 28.69217 36224 ft 483 kts 210°
2026-05-07 07:38 -24.37302 28.46838 36105 ft 463 kts 213°
2026-05-07 07:38 -24.60958 28.35381 36218 ft 464 kts 213°
2026-05-07 07:38 -24.84387 28.24025 36299 ft 471 kts 213°
2026-05-07 07:39 -25.32797 28.00419 36157 ft 471 kts 213°
2026-05-07 07:39 -25.80881 27.78623 36130 ft 480 kts 205°
2026-05-07 07:39 -26.06192 27.70692 36153 ft 468 kts 207°
2026-05-07 07:40 -26.31328 27.62355 36219 ft 475 kts 207°
2026-05-07 07:40 -26.53063 27.49623 36530 ft 408 kts 236°
2026-05-07 07:40 -26.70068 27.30328 36497 ft 457 kts 232°
2026-05-07 07:40 -26.88234 27.10662 36247 ft 462 kts 232°
2026-05-07 07:41 -27.06689 26.90409 36073 ft 448 kts 232°
2026-05-07 07:41 -27.23949 26.71384 36075 ft 434 kts 233°
2026-05-07 07:41 -27.41123 26.52343 36195 ft 436 kts 232°
2026-05-07 07:41 -27.58616 26.32878 36272 ft 449 kts 232°
2026-05-07 07:42 -27.76619 26.12761 36236 ft 456 kts 231°
2026-05-07 07:42 -27.94539 25.92644 36108 ft 451 kts 231°
2026-05-07 07:42 -28.12178 25.72731 36086 ft 441 kts 231°
2026-05-07 07:43 -28.46937 25.33195 36238 ft 450 kts 230°
2026-05-07 07:43 -28.82514 24.92341 36135 ft 456 kts 230°
2026-05-07 07:44 -29.06721 24.64295 36105 ft 444 kts 230°
2026-05-07 07:44 -29.11038 24.59269 36153 ft 452 kts 230°
2026-05-07 07:45 -29.15474 24.54098 36158 ft 456 kts 230°
2026-05-07 07:45 -29.19917 24.48918 36151 ft 456 kts 230°
2026-05-07 07:46 -29.24355 24.43737 36156 ft 455 kts 230°
2026-05-07 07:46 -29.28792 24.38549 36146 ft 454 kts 230°
2026-05-07 07:47 -29.33177 24.33414 36143 ft 453 kts 230°
2026-05-07 07:47 -29.37581 24.28250 36166 ft 452 kts 230°
2026-05-07 07:48 -29.41976 24.23089 36147 ft 452 kts 230°
2026-05-07 07:48 -29.46377 24.17914 36156 ft 452 kts 230°
2026-05-07 07:49 -29.50748 24.12767 36154 ft 452 kts 230°
2026-05-07 07:49 -29.55142 24.07588 36152 ft 453 kts 230°
2026-05-07 07:50 -29.59535 24.02402 36154 ft 453 kts 229°
2026-05-07 07:50 -29.63932 23.97204 36156 ft 453 kts 229°
2026-05-07 07:51 -29.68335 23.91994 36163 ft 454 kts 229°
2026-05-07 07:51 -29.72742 23.86771 36161 ft 454 kts 229°
2026-05-07 07:52 -29.77114 23.81582 36164 ft 455 kts 229°
2026-05-07 07:52 -29.81534 23.76329 36166 ft 455 kts 229°
2026-05-07 07:53 -29.85917 23.71114 36160 ft 456 kts 229°
2026-05-07 07:53 -29.90333 23.65851 36164 ft 456 kts 229°
2026-05-07 07:54 -29.94751 23.60581 36165 ft 456 kts 229°
2026-05-07 07:54 -29.99161 23.55312 36167 ft 456 kts 229°
2026-05-07 07:55 -30.03532 23.50083 36161 ft 456 kts 229°
2026-05-07 07:55 -30.07932 23.44811 36164 ft 455 kts 229°
2026-05-07 07:56 -30.12332 23.39533 36166 ft 456 kts 229°
2026-05-07 07:56 -30.16730 23.34249 36164 ft 456 kts 229°
2026-05-07 07:57 -30.21119 23.28969 36162 ft 456 kts 229°
2026-05-07 07:57 -30.25487 23.23708 36165 ft 455 kts 229°
2026-05-07 07:58 -30.29877 23.18411 36147 ft 456 kts 229°
2026-05-07 07:58 -30.34267 23.13108 36151 ft 456 kts 229°
2026-05-07 07:59 -30.38657 23.07798 36158 ft 456 kts 229°
2026-05-07 07:59 -30.43045 23.02482 36159 ft 456 kts 229°
2026-05-07 08:00 -30.47428 22.97167 36153 ft 456 kts 229°
2026-05-07 08:00 -30.51814 22.91838 36148 ft 457 kts 229°
2026-05-07 08:01 -30.56203 22.86499 36152 ft 457 kts 229°
2026-05-07 08:01 -30.60591 22.81155 36149 ft 457 kts 229°
2026-05-07 08:02 -30.64953 22.75834 36148 ft 458 kts 229°
2026-05-07 08:02 -30.69341 22.70474 36135 ft 458 kts 229°
2026-05-07 08:03 -30.73733 22.65102 36154 ft 458 kts 229°
2026-05-07 08:03 -30.78119 22.59729 36157 ft 458 kts 229°
2026-05-07 08:04 -30.82506 22.54347 36155 ft 457 kts 229°
2026-05-07 08:04 -30.86885 22.48968 36149 ft 457 kts 229°
2026-05-07 08:05 -30.91228 22.43625 36162 ft 457 kts 229°
2026-05-07 08:05 -30.95601 22.38238 36163 ft 457 kts 229°
2026-05-07 08:06 -30.99970 22.32847 36167 ft 457 kts 229°
2026-05-07 08:06 -31.04343 22.27444 36155 ft 458 kts 229°
2026-05-07 08:07 -31.08714 22.22036 36161 ft 458 kts 229°
2026-05-07 08:07 -31.13065 22.16646 36175 ft 458 kts 229°
2026-05-07 08:08 -31.17435 22.11224 36164 ft 458 kts 229°
2026-05-07 08:08 -31.21808 22.05789 36167 ft 459 kts 229°
2026-05-07 08:09 -31.26178 22.00352 36170 ft 459 kts 229°
2026-05-07 08:09 -31.30546 21.94908 36176 ft 459 kts 229°
2026-05-07 08:10 -31.34910 21.89461 36176 ft 459 kts 229°
2026-05-07 08:10 -31.39249 21.84039 36176 ft 459 kts 229°
2026-05-07 08:11 -31.43610 21.78581 36180 ft 458 kts 229°
2026-05-07 08:11 -31.47967 21.73119 36180 ft 458 kts 229°
2026-05-07 08:12 -31.52313 21.67663 36175 ft 457 kts 229°
2026-05-07 08:12 -31.56659 21.62200 36176 ft 457 kts 229°
2026-05-07 08:13 -31.60991 21.56746 36173 ft 456 kts 229°
2026-05-07 08:13 -31.65291 21.51324 36177 ft 456 kts 229°
2026-05-07 08:14 -31.69609 21.45872 36172 ft 455 kts 229°
2026-05-07 08:14 -31.73927 21.40412 36171 ft 455 kts 229°
2026-05-07 08:15 -31.78211 21.34986 36176 ft 455 kts 229°
2026-05-07 08:15 -31.81792 21.30446 36175 ft 455 kts 229°
2026-05-07 08:16 -31.86096 21.24980 36177 ft 455 kts 229°
2026-05-07 08:16 -31.90409 21.19495 36178 ft 456 kts 229°
2026-05-07 08:17 -31.94712 21.14015 36178 ft 456 kts 229°
2026-05-07 08:17 -31.99023 21.08517 36179 ft 456 kts 229°
2026-05-07 08:18 -32.03321 21.03026 36181 ft 456 kts 229°
2026-05-07 08:18 -32.07626 20.97519 36182 ft 456 kts 229°
2026-05-07 08:19 -32.11925 20.92011 36190 ft 456 kts 229°
2026-05-07 08:19 -32.16191 20.86538 36188 ft 456 kts 229°
2026-05-07 08:20 -32.20484 20.81021 36197 ft 455 kts 229°
2026-05-07 08:20 -32.24772 20.75503 36197 ft 455 kts 229°
2026-05-07 08:21 -32.29048 20.69991 36200 ft 455 kts 229°
2026-05-07 08:21 -32.33330 20.64463 36203 ft 455 kts 229°
2026-05-07 08:22 -32.37605 20.58938 36211 ft 455 kts 229°
2026-05-07 08:22 -32.41856 20.53433 36219 ft 456 kts 229°
2026-05-07 08:23 -32.46129 20.47893 36216 ft 456 kts 229°
2026-05-07 08:23 -32.50409 20.42335 36215 ft 456 kts 229°
2026-05-07 08:24 -32.54682 20.36777 36219 ft 456 kts 229°
2026-05-07 08:24 -32.58923 20.31253 36208 ft 456 kts 229°
2026-05-07 08:25 -32.63189 20.25687 36209 ft 455 kts 230°
2026-05-07 08:25 -32.67449 20.20121 36206 ft 455 kts 230°
2026-05-07 08:26 -32.73834 20.11762 36209 ft 455 kts 230°
2026-05-07 08:26 -32.78090 20.06180 36210 ft 455 kts 230°
2026-05-07 08:27 -32.82322 20.00620 36207 ft 455 kts 230°
2026-05-07 08:27 -32.86509 19.95114 35677 ft 447 kts 230°
2026-05-07 08:28 -32.88589 19.92375 35021 ft 446 kts 230°
2026-05-07 08:28 -32.90674 19.89624 34233 ft 448 kts 230°
2026-05-07 08:28 -32.92767 19.86862 33277 ft 451 kts 230°
2026-05-07 08:28 -32.94875 19.84078 32350 ft 453 kts 229°
2026-05-07 08:29 -32.96988 19.81286 31384 ft 455 kts 229°
2026-05-07 08:29 -32.99105 19.78486 30618 ft 453 kts 229°
2026-05-07 08:29 -33.01182 19.75738 29893 ft 450 kts 229°
2026-05-07 08:29 -33.03268 19.72977 29136 ft 446 kts 229°
2026-05-07 08:30 -33.05334 19.70240 28458 ft 441 kts 229°
2026-05-07 08:30 -33.07375 19.67533 27808 ft 436 kts 229°
2026-05-07 08:30 -33.09398 19.64848 27150 ft 432 kts 228°
2026-05-07 08:30 -33.11400 19.62188 26518 ft 428 kts 228°
2026-05-07 08:31 -33.13380 19.59556 25893 ft 424 kts 228°
2026-05-07 08:31 -33.15345 19.56941 25279 ft 421 kts 228°
2026-05-07 08:31 -33.17264 19.54386 24663 ft 418 kts 228°
2026-05-07 08:31 -33.19198 19.51808 24054 ft 415 kts 227°
2026-05-07 08:32 -33.21124 19.49242 23367 ft 413 kts 227°
2026-05-07 08:32 -33.23030 19.46699 22712 ft 409 kts 227°
2026-05-07 08:32 -33.24914 19.44177 22090 ft 405 kts 227°
2026-05-07 08:32 -33.26684 19.41581 21498 ft 401 kts 230°
2026-05-07 08:33 -33.28384 19.38951 20905 ft 399 kts 231°
2026-05-07 08:33 -33.30068 19.36320 20324 ft 396 kts 230°
2026-05-07 08:33 -33.31736 19.33715 19750 ft 394 kts 230°
2026-05-07 08:33 -33.33378 19.31157 19192 ft 392 kts 230°
2026-05-07 08:34 -33.35037 19.28581 18631 ft 390 kts 229°
2026-05-07 08:34 -33.36693 19.26011 17990 ft 389 kts 229°
2026-05-07 08:34 -33.38343 19.23451 17391 ft 387 kts 229°
2026-05-07 08:34 -33.39987 19.20899 16806 ft 386 kts 230°
2026-05-07 08:35 -33.41645 19.18384 16218 ft 381 kts 226°
2026-05-07 08:35 -33.43516 19.16174 15676 ft 376 kts 219°
2026-05-07 08:35 -33.45515 19.14158 15115 ft 374 kts 217°
2026-05-07 08:35 -33.47521 19.12196 14588 ft 372 kts 217°
2026-05-07 08:36 -33.49508 19.10222 14052 ft 371 kts 218°
2026-05-07 08:36 -33.51475 19.08227 13451 ft 369 kts 218°
2026-05-07 08:36 -33.53425 19.06221 12865 ft 368 kts 218°
2026-05-07 08:36 -33.55332 19.04240 12320 ft 366 kts 218°
2026-05-07 08:37 -33.57258 19.02234 11774 ft 365 kts 218°
2026-05-07 08:37 -33.59164 19.00247 11412 ft 360 kts 218°
2026-05-07 08:37 -33.61029 18.98297 11244 ft 351 kts 218°
2026-05-07 08:37 -33.62827 18.96411 11215 ft 335 kts 218°
2026-05-07 08:38 -33.64541 18.94612 11191 ft 320 kts 218°
2026-05-07 08:38 -33.66178 18.92895 11016 ft 310 kts 218°
2026-05-07 08:38 -33.67789 18.91207 10854 ft 302 kts 218°
2026-05-07 08:38 -33.69344 18.89575 10760 ft 291 kts 218°
2026-05-07 08:39 -33.70665 18.88186 10691 ft 282 kts 218°
2026-05-07 08:39 -33.71254 18.87568 10613 ft 281 kts 218°
2026-05-07 08:39 -33.72749 18.86002 10166 ft 286 kts 218°
2026-05-07 08:39 -33.74228 18.84448 9662 ft 279 kts 218°
2026-05-07 08:40 -33.75659 18.82942 9336 ft 265 kts 218°
2026-05-07 08:40 -33.77032 18.81498 9049 ft 262 kts 217°
2026-05-07 08:40 -33.78405 18.80054 8733 ft 263 kts 217°
2026-05-07 08:40 -33.79784 18.78604 8437 ft 264 kts 217°
2026-05-07 08:41 -33.81153 18.77163 8131 ft 265 kts 218°
2026-05-07 08:41 -33.82538 18.75704 7810 ft 265 kts 217°
2026-05-07 08:41 -33.83844 18.74162 7475 ft 263 kts 233°
2026-05-07 08:41 -33.84451 18.72125 7446 ft 263 kts 261°
2026-05-07 08:42 -33.84226 18.69869 7109 ft 281 kts 289°
2026-05-07 08:42 -33.83133 18.67907 6786 ft 289 kts 319°
2026-05-07 08:42 -33.81363 18.66806 6450 ft 285 kts 344°
2026-05-07 08:42 -33.79473 18.66160 6146 ft 281 kts 346°
2026-05-07 08:43 -33.77612 18.65577 6062 ft 272 kts 347°
2026-05-07 08:43 -33.75764 18.65028 5790 ft 272 kts 347°
2026-05-07 08:43 -33.73903 18.64481 5454 ft 276 kts 348°
2026-05-07 08:43 -33.72098 18.63972 5481 ft 266 kts 348°
2026-05-07 08:44 -33.70286 18.63453 5470 ft 269 kts 347°
2026-05-07 08:44 -33.68450 18.62893 5476 ft 272 kts 343°
2026-05-07 08:44 -33.66816 18.61768 5456 ft 275 kts 314°
2026-05-07 08:44 -33.65774 18.59855 5340 ft 276 kts 287°
2026-05-07 08:45 -33.65524 18.57609 5135 ft 271 kts 266°
2026-05-07 08:45 -33.65635 18.55366 4918 ft 267 kts 261°
2026-05-07 08:45 -33.66164 18.53282 4644 ft 259 kts 234°
2026-05-07 08:45 -33.67415 18.51799 4363 ft 250 kts 205°
2026-05-07 08:46 -33.68997 18.51076 4152 ft 238 kts 185°
2026-05-07 08:46 -33.70568 18.51286 3921 ft 227 kts 157°
2026-05-07 08:46 -33.71982 18.52009 3804 ft 216 kts 155°
2026-05-07 08:46 -33.73346 18.52668 3713 ft 203 kts 158°
2026-05-07 08:47 -33.74612 18.53176 3605 ft 181 kts 161°
2026-05-07 08:47 -33.75754 18.53568 3472 ft 161 kts 162°
2026-05-07 08:47 -33.76759 18.53892 3340 ft 144 kts 162°
2026-05-07 08:47 -33.77737 18.54211 3303 ft 147 kts 162°
2026-05-07 08:48 -33.78724 18.54525 3213 ft 145 kts 163°
2026-05-07 08:48 -33.79685 18.54830 3093 ft 141 kts 162°
2026-05-07 08:48 -33.80633 18.55130 3053 ft 142 kts 163°
2026-05-07 08:48 -33.81595 18.55437 3018 ft 143 kts 163°
2026-05-07 08:49 -33.82567 18.55743 2997 ft 144 kts 163°
2026-05-07 08:49 -33.83540 18.56053 2869 ft 147 kts 163°
2026-05-07 08:49 -33.84534 18.56366 2638 ft 147 kts 163°
2026-05-07 08:49 -33.85506 18.56677 2436 ft 143 kts 163°
2026-05-07 08:50 -33.86465 18.56979 2226 ft 141 kts 163°
2026-05-07 08:50 -33.87414 18.57280 2048 ft 142 kts 164°
2026-05-07 08:50 -33.88372 18.57583 1813 ft 141 kts 164°
2026-05-07 08:50 -33.89296 18.57876 1618 ft 137 kts 163°
2026-05-07 08:51 -33.90217 18.58170 1432 ft 139 kts 164°
2026-05-07 08:51 -33.91165 18.58474 1264 ft 142 kts 164°
2026-05-07 08:51 -33.92129 18.58776 1010 ft 145 kts 164°
2026-05-07 08:51 -33.93092 18.59090 846 ft 141 kts 164°
2026-05-07 08:52 -33.94042 18.59402 637 ft 140 kts 165°
2026-05-07 08:52 -33.94964 18.59682 388 ft 135 kts 166°
2026-05-07 08:52 -33.95868 18.59961 243 ft 134 kts 165°
2026-05-07 08:52 -33.96774 18.60250 173 ft 132 kts 165°
2026-05-07 08:53 -33.97581 18.60506 157 ft 103 kts 164°
2026-05-07 08:53 -33.98122 18.60679 159 ft 58 kts 165°
2026-05-07 08:53 -33.98396 18.60767 159 ft 34 kts 165°
2026-05-07 08:53 -33.98611 18.60835 157 ft 24 kts 165°
2026-05-07 08:54 -33.98722 18.60861 159 ft 15 kts 190°
2026-05-07 08:54 -33.98784 18.60766 158 ft 15 kts 252°
2026-05-07 08:54 -33.98773 18.60647 158 ft 16 kts 321°
2026-05-07 08:54 -33.98670 18.60598 158 ft 16 kts 340°
2026-05-07 08:55 -33.98566 18.60552 158 ft 16 kts 341°
2026-05-07 08:55 -33.98461 18.60509 158 ft 16 kts 341°
2026-05-07 08:55 -33.98356 18.60466 159 ft 16 kts 341°
2026-05-07 08:55 -33.98251 18.60423 159 ft 16 kts 341°
2026-05-07 08:56 -33.98239 18.60418 159 ft 0 kts 341°
2026-05-07 08:56 -33.98220 18.60409 159 ft 6 kts 338°
2026-05-07 08:56 -33.98122 18.60363 159 ft 25 kts 340°
2026-05-07 08:57 -33.97957 18.60293 159 ft 25 kts 341°
2026-05-07 08:57 -33.97792 18.60222 159 ft 25 kts 340°
2026-05-07 08:57 -33.97628 18.60151 159 ft 25 kts 340°
2026-05-07 08:57 -33.97466 18.60070 160 ft 25 kts 341°
2026-05-07 08:58 -33.97298 18.60013 160 ft 25 kts 345°
2026-05-07 08:58 -33.97130 18.59962 160 ft 25 kts 351°
2026-05-07 08:58 -33.96960 18.59918 160 ft 25 kts 344°
2026-05-07 08:58 -33.96801 18.59865 160 ft 17 kts 344°
2026-05-07 08:59 -33.96745 18.59846 160 ft 8 kts 345°
2026-05-07 08:59 -33.96699 18.59812 160 ft 8 kts 291°
2026-05-07 08:59 -33.96701 18.59758 160 ft 3 kts 258°
2026-05-07 08:59 -33.96703 18.59738 160 ft 0 kts 255°